Time,TemperatureF,DewpointF,PressureIn,WindDirection,WindDirectionDegrees,WindSpeedMPH,WindSpeedGustMPH,Humidity,HourlyPrecipIn,Conditions,Clouds,dailyrainin,SoftwareType,DateUTC
2013-03-18 00:00:00,16.7,10.7,30.34,SSE,155,0.0,0.0,77,0.00,CLR,,0.00,WeatherDisplay:10.37,2013-03-18 04:00:00,
2013-03-18 00:05:00,16.8,11.4,30.34,SSE,155,0.0,0.0,79,0.00,CLR,,0.00,WeatherDisplay:10.37,2013-03-18 04:05:00,
2013-03-18 00:10:00,17.0,11.6,30.34,SSE,155,0.0,0.0,79,0.00,CLR,,0.00,WeatherDisplay:10.37,2013-03-18 04:10:00,
2013-03-18 00:15:00,17.1,12.0,30.33,SSE,155,0.0,0.0,80,0.00,CLR,,0.00,WeatherDisplay:10.37,2013-03-18 04:15:00,
2013-03-18 00:20:00,17.4,12.0,30.34,SSE,155,0.0,0.0,79,0.00,CLR,,0.00,WeatherDisplay:10.37,2013-03-18 04:20:00,
2013-03-18 00:25:00,17.3,11.6,30.33,SSE,155,0.0,0.0,78,0.00,CLR,,0.00,WeatherDisplay:10.37,2013-03-18 04:25:00,
2013-03-18 00:30:00,17.0,11.3,30.34,SSE,155,0.0,0.0,78,0.00,CLR,,0.00,WeatherDisplay:10.37,2013-03-18 04:30:00,
2013-03-18 00:35:00,16.7,11.0,30.34,SSE,155,0.0,0.0,78,0.00,CLR,,0.00,WeatherDisplay:10.37,2013-03-18 04:35:00,
2013-03-18 00:40:00,16.9,11.5,30.34,SSE,155,0.0,0.0,79,0.00,CLR,,0.00,WeatherDisplay:10.37,2013-03-18 04:40:00,
2013-03-18 00:45:00,16.9,11.8,30.33,SSE,155,0.0,0.0,80,0.00,CLR,,0.00,WeatherDisplay:10.37,2013-03-18 04:45:00,
2013-03-18 00:50:00,16.5,11.4,30.33,SSE,155,0.0,0.0,80,0.00,CLR,,0.00,WeatherDisplay:10.37,2013-03-18 04:50:00,
2013-03-18 00:55:00,16.0,11.2,30.33,SSE,155,0.0,0.0,81,0.00,CLR,,0.00,WeatherDisplay:10.37,2013-03-18 04:55:00,
2013-03-18 01:00:00,16.0,11.7,30.33,SSE,148,0.0,0.0,83,0.00,CLR,,0.00,WeatherDisplay:10.37,2013-03-18 05:00:00,
2013-03-18 01:05:00,16.2,11.9,30.32,SSE,148,0.0,0.0,83,0.00,CLR,,0.00,WeatherDisplay:10.37,2013-03-18 05:05:00,
2013-03-18 01:10:00,16.0,11.7,30.33,SSE,148,0.0,0.0,83,0.00,CLR,,0.00,WeatherDisplay:10.37,2013-03-18 05:10:00,
2013-03-18 01:15:00,16.3,12.3,30.32,SE,130,0.0,0.0,84,0.00,CLR,,0.00,WeatherDisplay:10.37,2013-03-18 05:15:00,
2013-03-18 01:20:00,16.9,12.6,30.32,ESE,122,0.0,0.0,83,0.00,CLR,,0.00,WeatherDisplay:10.37,2013-03-18 05:20:00,
2013-03-18 01:25:00,16.9,12.1,30.32,SE,130,0.0,1.2,81,0.00,CLR,,0.00,WeatherDisplay:10.37,2013-03-18 05:25:00,
2013-03-18 01:30:00,16.7,11.9,30.32,SE,130,0.0,0.0,81,0.00,CLR,,0.00,WeatherDisplay:10.37,2013-03-18 05:30:00,
2013-03-18 01:35:00,16.5,12.0,30.33,SE,129,0.0,1.2,82,0.00,CLR,,0.00,WeatherDisplay:10.37,2013-03-18 05:35:00,
2013-03-18 01:40:00,16.5,12.0,30.33,SSE,150,0.2,0.0,82,0.00,CLR,,0.00,WeatherDisplay:10.37,2013-03-18 05:40:00,
2013-03-18 01:45:00,16.9,12.4,30.33,East,96,0.0,0.0,82,0.00,CLR,,0.00,WeatherDisplay:10.37,2013-03-18 05:45:00,
2013-03-18 01:50:00,17.1,12.3,30.32,East,91,0.5,1.2,81,0.00,CLR,,0.00,WeatherDisplay:10.37,2013-03-18 05:50:00,
2013-03-18 01:55:00,17.5,12.4,30.32,East,91,0.8,1.2,80,0.00,CLR,,0.00,WeatherDisplay:10.37,2013-03-18 05:55:00,
2013-03-18 02:00:00,17.8,12.1,30.32,East,91,0.0,1.2,78,0.00,CLR,,0.00,WeatherDisplay:10.37,2013-03-18 06:00:00,
2013-03-18 02:05:00,17.8,11.8,30.32,East,91,0.8,1.2,77,0.00,CLR,,0.00,WeatherDisplay:10.37,2013-03-18 06:05:00,
2013-03-18 02:10:00,18.0,12.0,30.32,East,90,0.8,1.2,77,0.00,CLR,,0.00,WeatherDisplay:10.37,2013-03-18 06:10:00,
2013-03-18 02:15:00,18.1,12.1,30.32,East,85,1.0,1.2,77,0.00,CLR,,0.00,WeatherDisplay:10.37,2013-03-18 06:15:00,
2013-03-18 02:20:00,18.2,12.2,30.31,ENE,77,1.2,2.3,77,0.00,CLR,,0.00,WeatherDisplay:10.37,2013-03-18 06:20:00,
2013-03-18 02:25:00,18.3,12.0,30.31,ENE,77,1.0,2.3,76,0.00,CLR,,0.00,WeatherDisplay:10.37,2013-03-18 06:25:00,
2013-03-18 02:30:00,18.3,12.0,30.31,ENE,77,1.6,2.3,76,0.00,CLR,,0.00,WeatherDisplay:10.37,2013-03-18 06:30:00,
2013-03-18 02:35:00,18.5,11.9,30.31,East,82,1.1,2.3,75,0.00,CLR,,0.00,WeatherDisplay:10.37,2013-03-18 06:35:00,
2013-03-18 02:40:00,18.5,11.9,30.31,East,86,0.7,2.3,75,0.00,CLR,,0.00,WeatherDisplay:10.37,2013-03-18 06:40:00,
2013-03-18 02:45:00,18.7,11.8,30.31,ENE,75,2.0,2.3,74,0.00,CLR,,0.00,WeatherDisplay:10.37,2013-03-18 06:45:00,
2013-03-18 02:50:00,18.9,11.7,30.30,ENE,74,2.3,3.5,73,0.00,CLR,,0.00,WeatherDisplay:10.37,2013-03-18 06:50:00,
2013-03-18 02:55:00,18.9,11.7,30.30,East,84,2.0,2.3,73,0.00,CLR,,0.00,WeatherDisplay:10.37,2013-03-18 06:55:00,
2013-03-18 03:00:00,19.0,11.5,30.30,East,80,1.9,2.3,72,0.00,CLR,,0.00,WeatherDisplay:10.37,2013-03-18 07:00:00,
2013-03-18 03:05:00,19.0,11.5,30.29,East,86,2.1,3.5,72,0.00,CLR,,0.00,WeatherDisplay:10.37,2013-03-18 07:05:00,
2013-03-18 03:10:00,19.0,11.5,30.29,East,84,1.8,2.3,72,0.00,CLR,,0.00,WeatherDisplay:10.37,2013-03-18 07:10:00,
2013-03-18 03:15:00,19.0,11.8,30.29,East,95,2.2,3.5,73,0.00,CLR,,0.00,WeatherDisplay:10.37,2013-03-18 07:15:00,
2013-03-18 03:20:00,19.2,11.6,30.30,East,84,1.9,3.5,72,0.00,CLR,,0.00,WeatherDisplay:10.37,2013-03-18 07:20:00,
2013-03-18 03:25:00,19.2,11.6,30.29,East,96,1.2,3.5,72,0.00,CLR,,0.00,WeatherDisplay:10.37,2013-03-18 07:25:00,
2013-03-18 03:30:00,19.1,11.6,30.29,East,86,1.8,3.5,72,0.00,CLR,,0.00,WeatherDisplay:10.37,2013-03-18 07:30:00,
2013-03-18 03:35:00,19.2,11.6,30.29,East,93,1.8,3.5,72,0.00,CLR,,0.00,WeatherDisplay:10.37,2013-03-18 07:35:00,
2013-03-18 03:40:00,19.2,11.6,30.29,East,82,1.7,3.5,72,0.00,CLR,,0.00,WeatherDisplay:10.37,2013-03-18 07:40:00,
2013-03-18 03:45:00,19.1,11.6,30.29,East,84,1.7,2.3,72,0.00,CLR,,0.00,WeatherDisplay:10.37,2013-03-18 07:45:00,
2013-03-18 03:50:00,19.0,11.5,30.28,East,79,1.3,2.3,72,0.00,CLR,,0.00,WeatherDisplay:10.37,2013-03-18 07:50:00,
2013-03-18 03:55:00,19.1,11.6,30.28,East,85,2.1,2.3,72,0.00,CLR,,0.00,WeatherDisplay:10.37,2013-03-18 07:55:00,
2013-03-18 04:00:00,19.2,11.6,30.28,East,82,0.6,2.3,72,0.00,CLR,,0.00,WeatherDisplay:10.37,2013-03-18 08:00:00,
2013-03-18 04:05:00,19.2,11.6,30.29,East,90,1.3,2.3,72,0.00,CLR,,0.00,WeatherDisplay:10.37,2013-03-18 08:05:00,
2013-03-18 04:10:00,19.3,11.7,30.28,ENE,75,2.0,2.3,72,0.00,CLR,,0.00,WeatherDisplay:10.37,2013-03-18 08:10:00,
2013-03-18 04:15:00,19.3,11.4,30.28,East,84,1.3,2.3,71,0.00,CLR,,0.00,WeatherDisplay:10.37,2013-03-18 08:15:00,
2013-03-18 04:20:00,19.2,11.3,30.29,East,81,1.4,2.3,71,0.00,CLR,,0.00,WeatherDisplay:10.37,2013-03-18 08:20:00,
2013-03-18 04:25:00,19.2,11.3,30.29,East,82,1.4,2.3,71,0.00,CLR,,0.00,WeatherDisplay:10.37,2013-03-18 08:25:00,
2013-03-18 04:31:00,19.2,11.3,30.28,East,89,2.4,3.5,71,0.00,CLR,,0.00,WeatherDisplay:10.37,2013-03-18 08:31:00,
2013-03-18 04:36:00,19.4,11.5,30.28,East,79,1.8,3.5,71,0.00,CLR,,0.00,WeatherDisplay:10.37,2013-03-18 08:36:00,
2013-03-18 04:41:00,19.4,11.2,30.28,East,80,2.4,3.5,70,0.00,CLR,,0.00,WeatherDisplay:10.37,2013-03-18 08:41:00,
2013-03-18 04:46:00,19.4,11.5,30.29,ENE,77,2.5,3.5,71,0.00,CLR,,0.00,WeatherDisplay:10.37,2013-03-18 08:46:00,
2013-03-18 04:51:00,19.5,11.3,30.28,East,79,1.9,3.5,70,0.00,CLR,,0.00,WeatherDisplay:10.37,2013-03-18 08:51:00,
2013-03-18 04:56:00,19.5,11.6,30.28,East,82,2.2,3.5,71,0.00,CLR,,0.00,WeatherDisplay:10.37,2013-03-18 08:56:00,
2013-03-18 05:01:00,19.6,11.7,30.28,ENE,77,2.5,3.5,71,0.00,CLR,,0.00,WeatherDisplay:10.37,2013-03-18 09:01:00,
2013-03-18 05:06:00,19.7,11.8,30.28,ENE,76,2.4,3.5,71,0.00,CLR,,0.00,WeatherDisplay:10.37,2013-03-18 09:06:00,
2013-03-18 05:11:00,19.6,11.7,30.28,East,85,2.4,3.5,71,0.00,CLR,,0.00,WeatherDisplay:10.37,2013-03-18 09:11:00,
2013-03-18 05:16:00,19.6,11.7,30.28,East,83,3.6,5.0,71,0.00,CLR,,0.00,WeatherDisplay:10.37,2013-03-18 09:16:00,
2013-03-18 05:21:00,19.6,11.7,30.28,ENE,72,2.9,3.5,71,0.00,CLR,,0.00,WeatherDisplay:10.37,2013-03-18 09:21:00,
2013-03-18 05:26:00,19.6,11.7,30.28,ENE,77,2.2,3.0,71,0.00,CLR,,0.00,WeatherDisplay:10.37,2013-03-18 09:26:00,
2013-03-18 05:31:00,19.6,11.7,30.29,East,79,0.9,2.3,71,0.00,CLR,,0.00,WeatherDisplay:10.37,2013-03-18 09:31:00,
2013-03-18 05:37:00,19.8,11.9,30.29,East,87,1.6,3.5,71,0.00,CLR,,0.00,WeatherDisplay:10.37,2013-03-18 09:37:00,
2013-03-18 05:42:00,19.9,12.0,30.29,East,82,2.3,4.0,71,0.00,CLR,,0.00,WeatherDisplay:10.37,2013-03-18 09:42:00,
2013-03-18 05:47:00,19.9,12.0,30.29,East,86,1.2,3.5,71,0.00,CLR,,0.00,WeatherDisplay:10.37,2013-03-18 09:47:00,
2013-03-18 05:52:00,19.9,12.0,30.29,East,92,1.5,3.5,71,0.00,CLR,,0.00,WeatherDisplay:10.37,2013-03-18 09:52:00,
2013-03-18 05:57:00,19.9,12.3,30.29,NNE,25,1.3,3.5,72,0.00,CLR,,0.00,WeatherDisplay:10.37,2013-03-18 09:57:00,
2013-03-18 06:02:00,19.8,12.2,30.29,ENE,72,0.6,2.0,72,0.00,FEW,,0.00,WeatherDisplay:10.37,2013-03-18 10:02:00,
2013-03-18 06:07:00,19.9,12.3,30.29,ESE,109,0.7,3.5,72,0.00,FEW,,0.00,WeatherDisplay:10.37,2013-03-18 10:07:00,
2013-03-18 06:12:00,19.8,12.5,30.29,East,80,1.4,2.3,73,0.00,FEW,,0.00,WeatherDisplay:10.37,2013-03-18 10:12:00,
2013-03-18 06:17:00,19.9,12.6,30.29,East,97,1.5,3.5,73,0.00,FEW,,0.00,WeatherDisplay:10.37,2013-03-18 10:17:00,
2013-03-18 06:22:00,19.9,12.9,30.29,East,85,1.7,3.5,74,0.00,FEW,,0.00,WeatherDisplay:10.37,2013-03-18 10:22:00,
2013-03-18 06:27:00,20.0,13.0,30.29,East,96,2.5,4.6,74,0.00,FEW,,0.00,WeatherDisplay:10.37,2013-03-18 10:27:00,
2013-03-18 06:32:00,20.0,13.0,30.29,ESE,102,1.2,2.3,74,0.00,FEW,,0.00,WeatherDisplay:10.37,2013-03-18 10:32:00,
2013-03-18 06:37:00,20.1,13.4,30.28,ENE,69,2.5,3.5,75,0.00,FEW,,0.00,WeatherDisplay:10.37,2013-03-18 10:37:00,
2013-03-18 06:42:00,20.2,13.5,30.29,East,83,2.3,4.6,75,0.00,FEW,,0.00,WeatherDisplay:10.37,2013-03-18 10:42:00,
2013-03-18 06:47:00,20.3,13.6,30.29,ENE,65,2.0,5.8,75,0.00,FEW,,0.00,WeatherDisplay:10.37,2013-03-18 10:47:00,
2013-03-18 06:52:00,20.5,13.8,30.28,ENE,69,2.6,3.5,75,0.00,FEW,,0.00,WeatherDisplay:10.37,2013-03-18 10:52:00,
2013-03-18 06:57:00,20.6,13.9,30.28,ENE,75,4.3,6.9,75,0.00,FEW,,0.00,WeatherDisplay:10.37,2013-03-18 10:57:00,
2013-03-18 07:02:00,20.6,13.9,30.28,East,94,1.6,3.5,75,0.00,BKN,,0.00,WeatherDisplay:10.37,2013-03-18 11:02:00,
2013-03-18 07:07:00,20.8,14.1,30.28,East,79,2.0,3.5,75,0.00,BKN,,0.00,WeatherDisplay:10.37,2013-03-18 11:07:00,
2013-03-18 07:12:00,20.8,14.4,30.28,ESE,105,2.7,3.5,76,0.00,BKN,,0.00,WeatherDisplay:10.37,2013-03-18 11:12:00,
2013-03-18 07:17:00,20.9,14.5,30.28,ENE,64,2.4,3.5,76,0.00,BKN,,0.00,WeatherDisplay:10.37,2013-03-18 11:17:00,
2013-03-18 07:22:00,21.0,14.6,30.28,ENE,78,2.5,3.5,76,0.00,BKN,,0.00,WeatherDisplay:10.37,2013-03-18 11:22:00,
2013-03-18 07:27:00,21.2,14.8,30.28,East,83,3.6,4.6,76,0.00,BKN,,0.00,WeatherDisplay:10.37,2013-03-18 11:27:00,
2013-03-18 07:32:00,21.3,14.9,30.27,ENE,75,2.7,3.5,76,0.00,BKN,,0.00,WeatherDisplay:10.37,2013-03-18 11:32:00,
2013-03-18 07:37:00,21.5,15.1,30.27,ENE,74,2.2,3.5,76,0.00,BKN,,0.00,WeatherDisplay:10.37,2013-03-18 11:37:00,
2013-03-18 07:42:00,21.6,15.2,30.27,ENE,74,2.8,3.5,76,0.00,BKN,,0.00,WeatherDisplay:10.37,2013-03-18 11:42:00,
2013-03-18 07:47:00,21.9,15.5,30.27,ENE,63,2.7,3.5,76,0.00,BKN,,0.00,WeatherDisplay:10.37,2013-03-18 11:47:00,
2013-03-18 07:52:00,22.0,15.6,30.27,East,86,3.5,4.6,76,0.00,BKN,,0.00,WeatherDisplay:10.37,2013-03-18 11:52:00,
2013-03-18 07:57:00,22.3,15.9,30.26,NE,55,3.1,4.0,76,0.00,BKN,,0.00,WeatherDisplay:10.37,2013-03-18 11:57:00,
2013-03-18 08:02:00,22.4,15.7,30.26,ENE,71,2.9,4.0,75,0.00,BKN,,0.00,WeatherDisplay:10.37,2013-03-18 12:02:00,
2013-03-18 08:07:00,22.6,15.9,30.25,ENE,65,3.7,4.6,75,0.00,BKN,,0.00,WeatherDisplay:10.37,2013-03-18 12:07:00,
2013-03-18 08:12:00,22.7,16.0,30.24,ENE,68,3.4,5.0,75,0.00,BKN,,0.00,WeatherDisplay:10.37,2013-03-18 12:12:00,
2013-03-18 08:17:00,22.8,16.1,30.24,ENE,65,4.0,5.8,75,0.00,BKN,,0.00,WeatherDisplay:10.37,2013-03-18 12:17:00,
2013-03-18 08:22:00,22.9,16.2,30.24,NE,51,4.5,6.0,75,0.00,BKN,,0.00,WeatherDisplay:10.37,2013-03-18 12:22:00,
2013-03-18 08:27:00,23.2,16.1,30.23,ENE,68,3.4,4.6,74,0.00,BKN,,0.00,WeatherDisplay:10.37,2013-03-18 12:27:00,
2013-03-18 08:32:00,23.4,16.3,30.23,SE,136,3.8,6.9,74,0.00,BKN,,0.00,WeatherDisplay:10.37,2013-03-18 12:32:00,
2013-03-18 08:37:00,23.6,16.2,30.22,East,82,5.0,6.9,73,0.00,BKN,,0.00,WeatherDisplay:10.37,2013-03-18 12:37:00,
2013-03-18 08:42:00,23.8,16.4,30.22,ESE,109,6.0,9.2,73,0.00,BKN,,0.00,WeatherDisplay:10.37,2013-03-18 12:42:00,
2013-03-18 08:47:00,23.9,16.5,30.22,ENE,75,4.8,5.8,73,0.00,BKN,,0.00,WeatherDisplay:10.37,2013-03-18 12:47:00,
2013-03-18 08:52:00,24.1,16.4,30.21,ENE,61,6.2,8.1,72,0.00,BKN,,0.00,WeatherDisplay:10.37,2013-03-18 12:52:00,
2013-03-18 08:57:00,24.2,16.5,30.21,East,79,4.1,6.9,72,0.00,BKN,,0.00,WeatherDisplay:10.37,2013-03-18 12:57:00,
2013-03-18 09:02:00,24.6,16.5,30.21,ENE,73,5.4,8.1,71,0.00,OVC,,0.00,WeatherDisplay:10.37,2013-03-18 13:02:00,
2013-03-18 09:07:00,24.8,16.7,30.20,East,97,5.6,8.1,71,0.00,OVC,,0.00,WeatherDisplay:10.37,2013-03-18 13:07:00,
2013-03-18 09:12:00,25.0,16.9,30.20,East,101,4.8,9.2,71,0.00,OVC,,0.00,WeatherDisplay:10.37,2013-03-18 13:12:00,
2013-03-18 09:17:00,25.3,16.9,30.20,East,79,4.6,8.1,70,0.00,OVC,,0.00,WeatherDisplay:10.37,2013-03-18 13:17:00,
2013-03-18 09:22:00,25.5,17.1,30.19,ESE,106,5.2,10.4,70,0.00,OVC,,0.00,WeatherDisplay:10.37,2013-03-18 13:22:00,
2013-03-18 09:28:00,25.6,16.5,30.19,East,91,4.9,11.5,68,0.00,OVC,,0.00,WeatherDisplay:10.37,2013-03-18 13:28:00,
2013-03-18 09:33:00,25.8,17.0,30.20,ENE,74,5.0,8.1,69,0.00,OVC,,0.00,WeatherDisplay:10.37,2013-03-18 13:33:00,
2013-03-18 09:38:00,25.9,16.8,30.19,ENE,68,4.8,8.1,68,0.00,OVC,,0.00,WeatherDisplay:10.37,2013-03-18 13:38:00,
2013-03-18 09:43:00,26.0,16.9,30.19,East,99,7.0,11.5,68,0.00,OVC,,0.00,WeatherDisplay:10.37,2013-03-18 13:43:00,
2013-03-18 09:48:00,26.1,16.6,30.18,East,82,7.0,10.0,67,0.00,OVC,,0.00,WeatherDisplay:10.37,2013-03-18 13:48:00,
2013-03-18 09:53:00,26.3,16.8,30.18,East,90,6.1,8.1,67,0.00,OVC,,0.00,WeatherDisplay:10.37,2013-03-18 13:53:00,
2013-03-18 09:58:00,26.5,16.7,30.18,East,83,4.6,6.9,66,0.00,OVC,,0.00,WeatherDisplay:10.37,2013-03-18 13:58:00,
2013-03-18 10:03:00,26.6,17.1,30.18,East,81,4.2,6.9,67,0.00,OVC,,0.00,WeatherDisplay:10.37,2013-03-18 14:03:00,
2013-03-18 10:08:00,26.8,17.3,30.18,East,86,2.7,5.8,67,0.00,OVC,,0.00,WeatherDisplay:10.37,2013-03-18 14:08:00,
2013-03-18 10:13:00,26.8,17.3,30.17,East,79,6.2,9.2,67,0.00,OVC,,0.00,WeatherDisplay:10.37,2013-03-18 14:13:00,
2013-03-18 10:18:00,26.7,17.2,30.17,ENE,58,4.6,5.8,67,0.00,OVC,,0.00,WeatherDisplay:10.37,2013-03-18 14:18:00,
2013-03-18 10:23:00,26.8,17.6,30.17,ENE,76,4.3,7.0,68,0.00,OVC,,0.00,WeatherDisplay:10.37,2013-03-18 14:23:00,
2013-03-18 10:28:00,26.9,17.4,30.17,ESE,109,4.3,9.2,67,0.00,OVC,,0.00,WeatherDisplay:10.37,2013-03-18 14:28:00,
2013-03-18 10:33:00,27.0,17.5,30.16,ENE,57,5.4,9.2,67,0.00,OVC,,0.00,WeatherDisplay:10.37,2013-03-18 14:33:00,
2013-03-18 10:38:00,27.2,17.3,30.16,East,96,5.7,11.5,66,0.00,OVC,,0.00,WeatherDisplay:10.37,2013-03-18 14:38:00,
2013-03-18 10:43:00,27.2,17.0,30.16,ENE,78,5.9,10.4,65,0.00,OVC,,0.00,WeatherDisplay:10.37,2013-03-18 14:43:00,
2013-03-18 10:48:00,27.4,17.5,30.16,East,89,6.3,9.2,66,0.00,OVC,,0.00,WeatherDisplay:10.37,2013-03-18 14:48:00,
2013-03-18 10:53:00,27.5,17.6,30.15,East,82,3.9,5.8,66,0.00,OVC,,0.00,WeatherDisplay:10.37,2013-03-18 14:53:00,
2013-03-18 10:58:00,27.8,17.6,30.15,SW,235,4.7,5.8,65,0.00,OVC,,0.00,WeatherDisplay:10.37,2013-03-18 14:58:00,
2013-03-18 11:03:00,27.9,17.6,30.15,ENE,66,4.4,5.8,65,0.00,OVC,,0.00,WeatherDisplay:10.37,2013-03-18 15:03:00,
2013-03-18 11:08:00,28.2,17.9,30.15,East,83,4.6,6.0,65,0.00,OVC,,0.00,WeatherDisplay:10.37,2013-03-18 15:08:00,
2013-03-18 11:13:00,28.5,18.2,30.15,East,79,5.7,7.0,65,0.00,OVC,,0.00,WeatherDisplay:10.37,2013-03-18 15:13:00,
2013-03-18 11:18:00,28.5,17.9,30.14,NE,51,2.3,5.8,64,0.00,OVC,,0.00,WeatherDisplay:10.37,2013-03-18 15:18:00,
2013-03-18 11:23:00,28.8,17.8,30.14,East,79,4.2,6.9,63,0.00,OVC,,0.00,WeatherDisplay:10.37,2013-03-18 15:23:00,
2013-03-18 11:28:00,29.0,17.6,30.13,ENE,77,5.5,11.5,62,0.00,OVC,,0.00,WeatherDisplay:10.37,2013-03-18 15:28:00,
2013-03-18 11:33:00,29.2,18.2,30.13,ENE,76,4.5,6.9,63,0.00,OVC,,0.00,WeatherDisplay:10.37,2013-03-18 15:33:00,
2013-03-18 11:38:00,29.4,17.6,30.13,East,98,5.2,9.2,61,0.00,OVC,,0.00,WeatherDisplay:10.37,2013-03-18 15:38:00,
2013-03-18 11:43:00,29.5,17.7,30.12,ENE,72,5.4,8.1,61,0.00,OVC,,0.00,WeatherDisplay:10.37,2013-03-18 15:43:00,
2013-03-18 11:48:00,29.5,16.9,30.12,East,79,4.8,11.5,59,0.00,OVC,,0.00,WeatherDisplay:10.37,2013-03-18 15:48:00,
2013-03-18 11:54:00,29.5,16.9,30.12,ENE,73,3.8,5.8,59,0.00,OVC,,0.00,WeatherDisplay:10.37,2013-03-18 15:54:00,
2013-03-18 11:59:00,29.7,16.7,30.12,ENE,68,5.6,11.5,58,0.00,OVC,,0.00,WeatherDisplay:10.37,2013-03-18 15:59:00,
2013-03-18 12:04:00,30.0,17.4,30.11,ENE,74,5.5,9.2,59,0.00,OVC,,0.00,WeatherDisplay:10.37,2013-03-18 16:04:00,
2013-03-18 12:09:00,30.0,17.0,30.11,East,82,5.0,5.8,58,0.00,OVC,,0.00,WeatherDisplay:10.37,2013-03-18 16:09:00,
2013-03-18 12:15:00,30.2,16.8,30.10,East,80,7.0,12.0,57,0.00,OVC,,0.00,WeatherDisplay:10.37,2013-03-18 16:15:00,
2013-03-18 12:20:00,30.5,17.5,30.09,East,84,5.1,9.0,58,0.00,OVC,,0.00,WeatherDisplay:10.37,2013-03-18 16:20:00,
2013-03-18 12:25:00,30.4,15.7,30.09,NE,43,6.1,11.5,54,0.00,OVC,,0.00,WeatherDisplay:10.37,2013-03-18 16:25:00,
2013-03-18 12:30:00,30.6,16.3,30.09,West,274,4.2,11.5,55,0.00,OVC,,0.00,WeatherDisplay:10.37,2013-03-18 16:30:00,
2013-03-18 12:35:00,30.8,16.5,30.09,ENE,68,5.8,8.1,55,0.00,OVC,,0.00,WeatherDisplay:10.37,2013-03-18 16:35:00,
2013-03-18 12:41:00,30.9,16.6,30.09,East,82,6.5,10.0,55,0.00,OVC,,0.00,WeatherDisplay:10.37,2013-03-18 16:41:00,
2013-03-18 12:46:00,31.2,16.9,30.09,East,89,5.7,6.9,55,0.00,OVC,,0.00,WeatherDisplay:10.37,2013-03-18 16:46:00,
2013-03-18 12:51:00,31.3,17.0,30.09,ENE,78,4.4,6.0,55,0.00,OVC,,0.00,WeatherDisplay:10.37,2013-03-18 16:51:00,
2013-03-18 12:56:00,31.6,17.3,30.08,ENE,78,5.3,7.0,55,0.00,OVC,,0.00,WeatherDisplay:10.37,2013-03-18 16:56:00,
2013-03-18 13:02:00,31.4,16.2,30.07,ENE,74,5.5,8.0,53,0.00,OVC,,0.00,WeatherDisplay:10.37,2013-03-18 17:02:00,
2013-03-18 13:07:00,31.2,16.0,30.07,ENE,70,5.6,8.1,53,0.00,OVC,,0.00,WeatherDisplay:10.37,2013-03-18 17:07:00,
2013-03-18 13:12:00,31.4,16.7,30.07,ENE,71,5.6,8.1,54,0.00,OVC,,0.00,WeatherDisplay:10.37,2013-03-18 17:12:00,
2013-03-18 13:17:00,31.4,17.1,30.07,ENE,72,4.1,5.8,55,0.00,OVC,,0.00,WeatherDisplay:10.37,2013-03-18 17:17:00,
2013-03-18 13:22:00,31.5,16.7,30.07,East,81,6.2,11.5,54,0.00,OVC,,0.00,WeatherDisplay:10.37,2013-03-18 17:22:00,
2013-03-18 13:27:00,31.4,17.1,30.07,ENE,77,5.3,9.2,55,0.00,OVC,,0.00,WeatherDisplay:10.37,2013-03-18 17:27:00,
2013-03-18 13:32:00,31.6,16.8,30.06,East,94,4.7,6.9,54,0.00,OVC,,0.00,WeatherDisplay:10.37,2013-03-18 17:32:00,
2013-03-18 13:37:00,31.9,18.0,30.07,East,81,3.5,4.6,56,0.00,OVC,,0.00,WeatherDisplay:10.37,2013-03-18 17:37:00,
2013-03-18 13:42:00,32.1,17.3,30.06,ENE,61,4.7,6.9,54,0.00,OVC,,0.00,WeatherDisplay:10.37,2013-03-18 17:42:00,
2013-03-18 13:47:00,32.3,17.5,30.05,ENE,78,5.0,8.1,54,0.00,OVC,,0.00,WeatherDisplay:10.37,2013-03-18 17:47:00,
2013-03-18 13:52:00,32.3,17.5,30.05,East,90,6.9,11.5,54,0.00,OVC,,0.00,WeatherDisplay:10.37,2013-03-18 17:52:00,
2013-03-18 13:57:00,32.3,17.1,30.05,East,99,5.5,8.0,53,0.00,OVC,,0.00,WeatherDisplay:10.37,2013-03-18 17:57:00,
2013-03-18 14:02:00,32.4,17.6,30.04,ENE,78,4.0,5.0,54,0.00,OVC,,0.00,WeatherDisplay:10.37,2013-03-18 18:02:00,
2013-03-18 14:07:00,32.5,17.7,30.03,ENE,77,2.5,4.6,54,0.00,OVC,,0.00,WeatherDisplay:10.37,2013-03-18 18:07:00,
2013-03-18 14:12:00,32.6,17.3,30.03,East,99,4.8,11.5,53,0.00,OVC,,0.00,WeatherDisplay:10.37,2013-03-18 18:12:00,
2013-03-18 14:17:00,32.7,17.9,30.02,East,86,5.8,9.2,54,0.00,OVC,,0.00,WeatherDisplay:10.37,2013-03-18 18:17:00,
2013-03-18 14:22:00,32.8,18.4,30.02,East,87,2.2,4.0,55,0.00,OVC,,0.00,WeatherDisplay:10.37,2013-03-18 18:22:00,
2013-03-18 14:27:00,32.9,18.1,30.02,ENE,74,4.1,5.8,54,0.00,OVC,,0.00,WeatherDisplay:10.37,2013-03-18 18:27:00,
2013-03-18 14:32:00,33.2,17.5,30.01,East,94,3.1,9.2,52,0.00,OVC,,0.00,WeatherDisplay:10.37,2013-03-18 18:32:00,
2013-03-18 14:37:00,33.5,18.2,30.01,East,87,5.5,9.0,53,0.00,OVC,,0.00,WeatherDisplay:10.37,2013-03-18 18:37:00,
2013-03-18 14:42:00,33.8,18.0,30.01,ENE,78,4.4,9.2,52,0.00,OVC,,0.00,WeatherDisplay:10.37,2013-03-18 18:42:00,
2013-03-18 14:47:00,34.0,18.2,30.01,ENE,68,4.5,9.2,52,0.00,-SN,,0.00,WeatherDisplay:10.37,2013-03-18 18:47:00,
2013-03-18 14:52:00,34.1,17.8,30.00,ENE,70,4.1,8.1,51,0.00,-SN,,0.00,WeatherDisplay:10.37,2013-03-18 18:52:00,
2013-03-18 14:57:00,34.2,17.9,29.99,East,79,4.7,11.5,51,0.00,-SN,,0.00,WeatherDisplay:10.37,2013-03-18 18:57:00,
2013-03-18 15:02:00,34.4,18.6,29.98,ESE,105,5.7,8.1,52,0.00,OVC,,0.00,WeatherDisplay:10.37,2013-03-18 19:02:00,
2013-03-18 15:07:00,34.6,19.2,29.98,ENE,66,8.9,9.2,53,0.00,OVC,,0.00,WeatherDisplay:10.37,2013-03-18 19:07:00,
2013-03-18 15:12:00,34.7,20.2,29.98,South,172,2.2,11.5,55,0.00,OVC,,0.00,WeatherDisplay:10.37,2013-03-18 19:12:00,
2013-03-18 15:17:00,34.6,21.3,29.98,ENE,75,7.5,12.7,58,0.00,OVC,,0.00,WeatherDisplay:10.37,2013-03-18 19:17:00,
2013-03-18 15:22:00,34.0,23.5,29.97,ENE,78,7.5,12.7,65,0.00,OVC,,0.00,WeatherDisplay:10.37,2013-03-18 19:22:00,
2013-03-18 15:27:00,33.2,24.1,29.97,ENE,74,6.4,9.2,69,0.00,OVC,,0.00,WeatherDisplay:10.37,2013-03-18 19:27:00,
2013-03-18 15:32:00,32.3,25.6,29.96,East,79,5.8,11.5,76,0.00,-SN,,0.00,WeatherDisplay:10.37,2013-03-18 19:32:00,
2013-03-18 15:37:00,31.5,26.0,29.96,ENE,74,5.8,11.5,80,0.00,-SN,,0.00,WeatherDisplay:10.37,2013-03-18 19:37:00,
2013-03-18 15:42:00,31.0,26.7,29.95,ENE,76,6.5,11.5,84,0.00,-SN,,0.00,WeatherDisplay:10.37,2013-03-18 19:42:00,
2013-03-18 15:47:00,30.6,26.9,29.95,ENE,63,7.4,11.5,86,0.00,OVC,,0.00,WeatherDisplay:10.37,2013-03-18 19:47:00,
2013-03-18 15:52:00,30.5,27.4,29.94,East,88,3.6,7.0,88,0.00,OVC,,0.00,WeatherDisplay:10.37,2013-03-18 19:52:00,
2013-03-18 15:57:00,30.5,27.6,29.94,East,86,4.0,6.9,89,0.00,OVC,,0.00,WeatherDisplay:10.37,2013-03-18 19:57:00,
2013-03-18 16:02:00,30.5,27.6,29.94,East,84,7.0,14.0,89,0.00,-SN,,0.00,WeatherDisplay:10.37,2013-03-18 20:02:00,
2013-03-18 16:08:00,30.2,27.3,29.94,East,98,5.3,8.1,89,0.00,-SN,,0.00,WeatherDisplay:10.37,2013-03-18 20:08:00,
2013-03-18 16:13:00,30.0,27.4,29.94,East,84,5.1,9.2,90,0.00,-SN,,0.00,WeatherDisplay:10.37,2013-03-18 20:13:00,
2013-03-18 16:18:00,29.7,27.1,29.94,ENE,75,4.0,8.1,90,0.00,-SN,,0.00,WeatherDisplay:10.37,2013-03-18 20:18:00,
2013-03-18 16:23:00,29.6,27.3,29.93,ENE,69,5.2,11.5,91,0.00,-SN,,0.00,WeatherDisplay:10.37,2013-03-18 20:23:00,
2013-03-18 16:28:00,29.5,27.2,29.94,East,83,5.7,12.7,91,0.00,-SN,,0.00,WeatherDisplay:10.37,2013-03-18 20:28:00,
2013-03-18 16:33:00,29.4,27.1,29.94,ENE,76,5.6,9.2,91,0.00,-SN,,0.00,WeatherDisplay:10.37,2013-03-18 20:33:00,
2013-03-18 16:38:00,29.4,27.4,29.94,East,99,3.3,5.8,92,0.00,-SN,,0.00,WeatherDisplay:10.37,2013-03-18 20:38:00,
2013-03-18 16:43:00,29.4,27.4,29.93,East,87,4.7,9.2,92,0.00,-SN,,0.00,WeatherDisplay:10.37,2013-03-18 20:43:00,
2013-03-18 16:48:00,29.3,27.3,29.93,East,87,3.7,5.8,92,0.00,-SN,,0.00,WeatherDisplay:10.37,2013-03-18 20:48:00,
2013-03-18 16:53:00,29.4,27.4,29.92,NE,52,5.4,10.4,92,0.00,-SN,,0.00,WeatherDisplay:10.37,2013-03-18 20:53:00,
2013-03-18 16:58:00,29.4,27.4,29.91,SSW,198,4.5,11.5,92,0.00,-SN,,0.00,WeatherDisplay:10.37,2013-03-18 20:58:00,
2013-03-18 17:03:00,29.5,27.5,29.90,East,84,6.4,9.2,92,0.00,-SN,,0.00,WeatherDisplay:10.37,2013-03-18 21:03:00,
2013-03-18 17:08:00,29.6,27.6,29.89,NNE,27,3.2,6.9,92,0.00,-SN,,0.00,WeatherDisplay:10.37,2013-03-18 21:08:00,
2013-03-18 17:13:00,29.6,27.8,29.89,SE,141,7.3,11.5,93,0.00,-SN,,0.00,WeatherDisplay:10.37,2013-03-18 21:13:00,
2013-03-18 17:18:00,29.4,27.4,29.88,ESE,105,6.9,11.5,92,0.00,-SN,,0.00,WeatherDisplay:10.37,2013-03-18 21:18:00,
2013-03-18 17:23:00,29.2,27.2,29.88,ENE,60,5.7,10.4,92,0.00,-SN,,0.00,WeatherDisplay:10.37,2013-03-18 21:23:00,
2013-03-18 17:28:00,29.1,27.1,29.88,East,86,4.6,10.4,92,0.00,-SN,,0.00,WeatherDisplay:10.37,2013-03-18 21:28:00,
2013-03-18 17:33:00,29.0,27.0,29.88,East,79,7.5,12.7,92,0.00,-SN,,0.00,WeatherDisplay:10.37,2013-03-18 21:33:00,
2013-03-18 17:38:00,29.0,27.0,29.87,ESE,122,7.5,11.5,92,0.00,-SN,,0.00,WeatherDisplay:10.37,2013-03-18 21:38:00,
2013-03-18 17:43:00,29.0,26.7,29.88,ESE,117,5.9,15.0,91,0.00,-SN,,0.00,WeatherDisplay:10.37,2013-03-18 21:43:00,
2013-03-18 17:48:00,29.0,26.7,29.87,ESE,108,5.9,11.5,91,0.00,-SN,,0.00,WeatherDisplay:10.37,2013-03-18 21:48:00,
2013-03-18 17:53:00,29.1,26.8,29.87,East,95,3.5,5.8,91,0.00,-SN,,0.00,WeatherDisplay:10.37,2013-03-18 21:53:00,
2013-03-18 17:58:00,29.2,26.6,29.87,SSW,193,4.9,15.0,90,0.00,-SN,,0.00,WeatherDisplay:10.37,2013-03-18 21:58:00,
2013-03-18 18:03:00,29.3,26.5,29.87,NE,50,4.1,11.5,89,0.00,-SN,,0.00,WeatherDisplay:10.37,2013-03-18 22:03:00,
2013-03-18 18:08:00,29.3,26.5,29.88,East,79,4.1,8.1,89,0.00,-SN,,0.00,WeatherDisplay:10.37,2013-03-18 22:08:00,
2013-03-18 18:14:00,29.4,26.3,29.88,East,84,1.9,3.5,88,0.00,-SN,,0.00,WeatherDisplay:10.37,2013-03-18 22:14:00,
2013-03-18 18:19:00,29.5,26.1,29.87,SSE,147,5.7,10.0,87,0.00,-SN,,0.00,WeatherDisplay:10.37,2013-03-18 22:19:00,
2013-03-18 18:24:00,29.6,26.2,29.86,ESE,105,6.0,8.0,87,0.00,-SN,,0.00,WeatherDisplay:10.37,2013-03-18 22:24:00,
2013-03-18 18:29:00,29.6,25.9,29.86,NNE,32,5.8,9.0,86,0.00,-SN,,0.00,WeatherDisplay:10.37,2013-03-18 22:29:00,
2013-03-18 18:34:00,29.6,25.6,29.86,SE,129,2.0,5.8,85,0.00,OVC,,0.00,WeatherDisplay:10.37,2013-03-18 22:34:00,
2013-03-18 18:39:00,29.7,25.7,29.86,SE,136,4.1,8.1,85,0.00,OVC,,0.00,WeatherDisplay:10.37,2013-03-18 22:39:00,
2013-03-18 18:44:00,29.7,25.7,29.87,East,79,2.8,4.0,85,0.00,OVC,,0.00,WeatherDisplay:10.37,2013-03-18 22:44:00,
2013-03-18 18:49:00,29.7,25.7,29.86,ENE,72,2.5,3.5,85,0.00,OVC,,0.00,WeatherDisplay:10.37,2013-03-18 22:49:00,
2013-03-18 18:54:00,29.7,25.7,29.86,NE,47,5.8,8.1,85,0.00,OVC,,0.00,WeatherDisplay:10.37,2013-03-18 22:54:00,
2013-03-18 18:59:00,29.8,25.8,29.85,SE,124,2.7,4.6,85,0.00,OVC,,0.00,WeatherDisplay:10.37,2013-03-18 22:59:00,
2013-03-18 19:04:00,29.8,25.6,29.85,East,79,3.0,3.5,84,0.00,-PL,,0.00,WeatherDisplay:10.37,2013-03-18 23:04:00,
2013-03-18 19:09:00,29.9,25.7,29.84,SE,145,2.8,5.8,84,0.00,-PL,,0.00,WeatherDisplay:10.37,2013-03-18 23:09:00,
2013-03-18 19:14:00,30.0,25.7,29.84,East,91,2.0,8.0,84,0.00,-PL,,0.00,WeatherDisplay:10.37,2013-03-18 23:14:00,
2013-03-18 19:19:00,30.0,25.8,29.83,SE,128,4.0,6.9,84,0.00,-SN,,0.00,WeatherDisplay:10.37,2013-03-18 23:19:00,
2013-03-18 19:24:00,30.0,25.8,29.83,East,89,3.0,13.0,84,0.00,-SN,,0.00,WeatherDisplay:10.37,2013-03-18 23:24:00,
2013-03-18 19:29:00,29.9,25.9,29.83,ESE,105,5.1,7.0,85,0.00,-SN,,0.00,WeatherDisplay:10.37,2013-03-18 23:29:00,
2013-03-18 19:34:00,29.7,26.0,29.82,SE,125,1.8,4.6,86,0.00,-SN,,0.00,WeatherDisplay:10.37,2013-03-18 23:34:00,
2013-03-18 19:39:00,29.6,26.2,29.83,ESE,105,2.0,8.1,87,0.00,-SN,,0.00,WeatherDisplay:10.37,2013-03-18 23:39:00,
2013-03-18 19:44:00,29.4,26.6,29.82,ENE,78,3.8,6.9,89,0.00,-SN,,0.00,WeatherDisplay:10.37,2013-03-18 23:44:00,
2013-03-18 19:49:00,29.3,26.7,29.82,East,98,2.0,5.0,90,0.00,-SN,,0.00,WeatherDisplay:10.37,2013-03-18 23:49:00,
2013-03-18 19:54:00,29.3,26.7,29.82,ENE,76,2.9,4.6,90,0.00,-SN,,0.00,WeatherDisplay:10.37,2013-03-18 23:54:00,
2013-03-18 19:59:00,29.4,27.1,29.81,East,101,2.9,5.0,91,0.00,-SN,,0.00,WeatherDisplay:10.37,2013-03-18 23:59:00,
2013-03-18 20:04:00,29.4,27.1,29.81,East,82,4.9,5.8,91,0.00,-SN,,0.00,WeatherDisplay:10.37,2013-03-19 00:04:00,
2013-03-18 20:09:00,29.5,27.5,29.80,East,95,3.0,8.1,92,0.00,-SN,,0.00,WeatherDisplay:10.37,2013-03-19 00:09:00,
2013-03-18 20:14:00,29.6,27.6,29.80,East,90,3.1,6.9,92,0.00,-SN,,0.00,WeatherDisplay:10.37,2013-03-19 00:14:00,
2013-03-18 20:19:00,29.6,27.6,29.80,East,91,2.0,7.0,92,0.00,-SN,,0.00,WeatherDisplay:10.37,2013-03-19 00:19:00,
2013-03-18 20:24:00,29.7,27.7,29.80,ENE,77,3.6,6.9,92,0.00,-SN,,0.00,WeatherDisplay:10.37,2013-03-19 00:24:00,
2013-03-18 20:29:00,29.8,27.8,29.80,ENE,75,3.0,5.8,92,0.00,-SN,,0.00,WeatherDisplay:10.37,2013-03-19 00:29:00,
2013-03-18 20:35:00,29.8,27.8,29.79,East,79,1.8,4.0,92,0.00,-SN,,0.00,WeatherDisplay:10.37,2013-03-19 00:35:00,
2013-03-18 20:40:00,29.8,27.8,29.79,East,90,3.2,6.0,92,0.00,-SN,,0.00,WeatherDisplay:10.37,2013-03-19 00:40:00,
2013-03-18 20:45:00,29.9,27.9,29.78,ESE,105,3.9,5.0,92,0.00,-SN,,0.00,WeatherDisplay:10.37,2013-03-19 00:45:00,
2013-03-18 20:50:00,30.0,28.0,29.78,SSE,148,2.4,3.5,92,0.00,-SN,,0.00,WeatherDisplay:10.37,2013-03-19 00:50:00,
2013-03-18 20:55:00,30.2,28.2,29.77,ENE,72,3.9,8.1,92,0.00,-SN,,0.00,WeatherDisplay:10.37,2013-03-19 00:55:00,
2013-03-18 21:00:00,30.3,28.3,29.77,ENE,75,3.4,6.9,92,0.00,-SN,,0.00,WeatherDisplay:10.37,2013-03-19 01:00:00,
2013-03-18 21:05:00,30.3,28.3,29.77,SE,124,3.8,5.8,92,0.00,OVC,,0.00,WeatherDisplay:10.37,2013-03-19 01:05:00,
2013-03-18 21:10:00,30.4,28.4,29.77,East,85,4.4,8.1,92,0.00,OVC,,0.00,WeatherDisplay:10.37,2013-03-19 01:10:00,
2013-03-18 21:15:00,30.3,28.0,29.76,NE,39,5.4,11.0,91,0.00,OVC,,0.00,WeatherDisplay:10.37,2013-03-19 01:15:00,
2013-03-18 21:20:00,30.3,28.3,29.76,East,86,3.7,5.0,92,0.00,OVC,,0.00,WeatherDisplay:10.37,2013-03-19 01:20:00,
2013-03-18 21:25:00,30.4,28.4,29.75,ESE,113,3.4,4.6,92,0.00,OVC,,0.00,WeatherDisplay:10.37,2013-03-19 01:25:00,
2013-03-18 21:30:00,30.5,28.5,29.75,SE,124,4.2,9.2,92,0.00,OVC,,0.00,WeatherDisplay:10.37,2013-03-19 01:30:00,
2013-03-18 21:35:00,30.6,28.6,29.75,SE,131,3.6,6.9,92,0.00,OVC,,0.00,WeatherDisplay:10.37,2013-03-19 01:35:00,
2013-03-18 21:40:00,30.8,28.8,29.74,East,82,1.8,3.5,92,0.00,OVC,,0.00,WeatherDisplay:10.37,2013-03-19 01:40:00,
2013-03-18 21:45:00,31.0,28.9,29.74,NE,52,2.7,5.0,92,0.00,OVC,,0.00,WeatherDisplay:10.37,2013-03-19 01:45:00,
2013-03-18 21:50:00,31.3,29.2,29.74,East,95,1.8,4.0,92,0.00,-RA,,0.00,WeatherDisplay:10.37,2013-03-19 01:50:00,
2013-03-18 21:55:00,31.4,29.3,29.73,ESE,105,2.6,3.5,92,0.00,-RA,,0.00,WeatherDisplay:10.37,2013-03-19 01:55:00,
2013-03-18 22:00:00,31.6,29.5,29.73,ESE,117,1.8,3.5,92,0.00,-RA,,0.00,WeatherDisplay:10.37,2013-03-19 02:00:00,
2013-03-18 22:05:00,31.9,30.1,29.73,East,94,3.5,5.0,93,0.00,-RA,,0.00,WeatherDisplay:10.37,2013-03-19 02:05:00,
2013-03-18 22:10:00,32.4,30.6,29.73,ESE,103,2.4,6.9,93,0.00,-RA,,0.00,WeatherDisplay:10.37,2013-03-19 02:10:00,
2013-03-18 22:15:00,32.6,30.8,29.72,ENE,78,3.9,9.2,93,0.00,-RA,,0.00,WeatherDisplay:10.37,2013-03-19 02:15:00,
2013-03-18 22:20:00,32.6,30.8,29.72,East,96,2.9,5.8,93,0.00,-RA,,0.00,WeatherDisplay:10.37,2013-03-19 02:20:00,
2013-03-18 22:25:00,32.7,30.9,29.72,ESE,105,0.9,3.5,93,0.00,-RA,,0.00,WeatherDisplay:10.37,2013-03-19 02:25:00,
2013-03-18 22:30:00,32.7,30.9,29.71,ESE,113,2.9,4.6,93,0.00,-RA,,0.00,WeatherDisplay:10.37,2013-03-19 02:30:00,
2013-03-18 22:35:00,32.9,31.1,29.70,East,100,4.3,5.8,93,0.00,-RA,,0.00,WeatherDisplay:10.37,2013-03-19 02:35:00,
2013-03-18 22:40:00,33.0,31.2,29.70,SE,129,1.9,2.3,93,0.00,-RA,,0.00,WeatherDisplay:10.37,2013-03-19 02:40:00,
2013-03-18 22:45:00,33.2,31.4,29.70,SE,128,3.9,11.0,93,0.00,-RA,,0.00,WeatherDisplay:10.37,2013-03-19 02:45:00,
2013-03-18 22:50:00,33.3,31.5,29.69,SSE,150,4.4,4.4,93,0.00,-RA,,0.00,WeatherDisplay:10.37,2013-03-19 02:50:00,
2013-03-18 22:55:00,33.4,31.6,29.69,ESE,105,2.1,3.5,93,0.00,-RA,,0.00,WeatherDisplay:10.37,2013-03-19 02:55:00,
2013-03-18 23:00:00,33.5,31.7,29.69,SE,136,1.7,3.5,93,0.00,-RA,,0.00,WeatherDisplay:10.37,2013-03-19 03:00:00,
2013-03-18 23:05:00,33.5,31.7,29.69,SSE,154,1.5,3.0,93,0.00,-RA,,0.00,WeatherDisplay:10.37,2013-03-19 03:05:00,
2013-03-18 23:10:00,33.6,31.8,29.69,SE,135,1.2,3.5,93,0.00,-RA,,0.00,WeatherDisplay:10.37,2013-03-19 03:10:00,
2013-03-18 23:15:00,33.6,31.8,29.68,ESE,118,1.1,3.5,93,0.00,-RA,,0.00,WeatherDisplay:10.37,2013-03-19 03:15:00,
2013-03-18 23:20:00,33.7,31.9,29.68,SE,131,0.9,2.3,93,0.00,-RA,,0.00,WeatherDisplay:10.37,2013-03-19 03:20:00,
2013-03-18 23:25:00,33.7,31.6,29.68,SE,129,2.6,2.6,92,0.00,-RA,,0.00,WeatherDisplay:10.37,2013-03-19 03:25:00,
2013-03-18 23:30:00,33.8,31.7,29.68,SE,129,1.0,1.2,92,0.00,-RA,,0.00,WeatherDisplay:10.37,2013-03-19 03:30:00,
2013-03-18 23:35:00,33.8,31.7,29.67,ESE,120,0.7,1.2,92,0.00,OVC,,0.00,WeatherDisplay:10.37,2013-03-19 03:35:00,
2013-03-18 23:40:00,33.9,31.8,29.67,East,87,1.1,5.8,92,0.00,OVC,,0.00,WeatherDisplay:10.37,2013-03-19 03:40:00,
2013-03-18 23:45:00,33.9,31.8,29.67,ESE,113,0.3,1.0,92,0.00,OVC,,0.00,WeatherDisplay:10.37,2013-03-19 03:45:00,
2013-03-18 23:50:00,33.9,31.8,29.67,SE,141,0.6,1.2,92,0.00,OVC,,0.00,WeatherDisplay:10.37,2013-03-19 03:50:00,
2013-03-18 23:55:00,34.0,31.9,29.67,SSE,148,1.2,2.3,92,0.00,OVC,,0.00,WeatherDisplay:10.37,2013-03-19 03:55:00,